Tracking 30308 objects as of 19-Apr-2025
HD Live streaming from Space Station
objects crossing your sky now

ARIANE 44LP DEB

Track ARIANE 44LP DEB now!


NORAD ID: 33543
Int'l Code: 1988-109S
Perigee: 579.4 km
Apogee: 35,575.8 km
Inclination: 6.5 °
Period: 634.1 minutes
Semi major axis: 24448 km
RCS: 0.5686 m2 (medium)
Launch date: December 11, 1988
Source: France (FR)
Launch site: FRENCH GUIANA (FRGUI)

Note: This is SATELLITE DEBRIS
Your satellite tracking list
Your tracking list is empty




NASA's NSSDC Master Catalog

Two Line Element Set (TLE):
1 33543U 88109S   25108.73279409 -.00000144  00000-0 -13697-2 0  9990
2 33543   6.5399 214.3831 7157122 102.2710   6.8017  2.27102151186268
Source of the keplerian elements: AFSPC